GW2271 Weather Reports


time (UTC)temp
C
wind
direction
speed
KPH
gust
KPH
rain 1hr
cm
rain 24hr
cm
rain mn
cm
humidity
%
barometer
mb
20260906140105 -17 0 0.0 4.8 0.00 0.00 0.00 1018.0
20260906134603 -17 92 0.0 3.2 0.00 0.00 0.00 1017.9
20260906133054 -17 0 0.0 3.2 0.00 0.00 0.00 1018.1
20260906131549 -17 0 0.0 3.2 0.00 0.00 0.00 1018.2
20260906130106 -17 0 0.0 1.6 0.00 0.00 0.00 1018.0
20260906124554 -17 0 0.0 1.6 0.00 0.00 0.00 1017.8
20260906123050 -17 0 0.0 0.0 0.00 0.00 0.00 1017.8
20260906121600 -17 0 0.0 0.0 0.00 0.00 0.00 1017.5
20260906120054 -17 0 0.0 1.6 0.00 0.00 0.00 1017.4
20260906114601 -17 0 0.0 0.0 0.00 0.00 0.00 1017.2
20260906113102 -17 0 0.0 0.0 0.00 0.00 0.00 1017.0
20260906111549 -17 0 0.0 0.0 0.00 0.00 0.00 1016.8
20260906110051 -17 0 0.0 0.0 0.00 0.00 0.00 1016.8
20260906104552 -17 0 0.0 3.2 0.00 0.00 0.00 1016.5
20260906103050 -17 0 0.0 0.0 0.00 0.00 0.00 1016.3
20260906101550 -17 0 0.0 1.6 0.00 0.00 0.00 1016.3
20260906100054 -17 0 0.0 1.6 0.00 0.00 0.00 1016.2
20260906094554 -17 0 0.0 1.6 0.00 0.00 0.00 1016.0
20260906093044 -17 0 0.0 1.6 0.00 0.00 0.00 1016.0
20260906091556 -17 0 0.0 3.2 0.00 0.00 0.00 1015.9
20260906090052 -17 64 0.0 6.4 0.00 0.00 0.00 1015.8
20260906084559 -17 0 0.0 4.8 0.00 0.00 0.00 1015.9
20260906083056 -17 0 1.6 9.7 0.00 0.00 0.00 1015.9
20260906081555 -17 0 0.0 6.4 0.00 0.00 0.00 1015.9
20260906080051 -17 0 1.6 9.7 0.00 0.00 0.00 1016.1
20260906074552 -17 66 0.0 4.8 0.00 0.00 0.00 1016.2
20260906073055 -17 0 0.0 3.2 0.00 0.00 0.00 1016.0
20260906071550 -17 0 0.0 3.2 0.00 0.00 0.00 1015.9
20260906070045 -17 0 0.0 4.8 0.00 0.00 0.00 1016.0
20260906064552 -17 0 0.0 1.6 0.00 0.00 0.00 1016.3
20260906063053 -17 0 0.0 3.2 0.00 0.00 0.00 1016.2
20260906061559 -17 0 0.0 1.6 0.00 0.00 0.00 1016.1
20260906060147 -17 0 0.0 0.0 0.00 0.00 0.00 1016.2
20260906054553 -17 0 0.0 0.0 0.00 0.00 0.00 1016.0
20260906053101 -17 0 0.0 0.0 0.00 0.00 0.00 1015.9
20260906051549 -17 0 0.0 1.6 0.00 0.00 0.00 1015.7
20260906050112 -17 0 0.0 3.2 0.00 0.00 0.00 1015.5
20260906044553 -17 0 0.0 0.0 0.00 0.00 0.00 1015.3
20260906043049 -17 63 0.0 4.8 0.00 0.00 0.00 1015.2
20260906041557 -17 0 0.0 1.6 0.00 0.00 0.00 1015.1
20260906040052 -17 0 0.0 4.8 0.00 0.00 0.00 1015.0
20260906034557 -17 0 0.0 3.2 0.00 0.00 0.00 1015.0
20260906033056 -17 86 0.0 4.8 0.00 0.00 0.00 1014.7
20260906031617 -17 88 0.0 4.8 0.00 0.00 0.00 1014.7
20260906030053 -17 29 1.6 9.7 0.00 0.00 0.00 1014.7
20260906024554 -17 0 0.0 9.7 0.00 0.00 0.00 1014.6
20260906023106 -17 0 0.0 8.0 0.00 0.00 0.00 1014.4
20260906021557 -17 0 0.0 3.2 0.00 0.00 0.00 1014.1
20260906020059 -17 0 0.0 4.8 0.00 0.00 0.00 1013.9
20260906014549 -17 54 0.0 6.4 0.00 0.00 0.00 1013.6
20260906013051 -17 0 0.0 1.6 0.00 0.00 0.00 1013.5
20260906011553 -17 0 0.0 0.0 0.00 0.00 0.00 1013.4
20260906010050 -17 0 0.0 0.0 0.00 0.00 0.00 1013.3
20260906004559 -17 0 0.0 0.0 0.00 0.00 0.00 1013.2
20260906003053 -17 0 0.0 0.0 0.00 0.00 0.00 1013.1
20260906001559 -17 0 0.0 0.0 0.00 0.00 0.00 1013.1
20260906000058 -17 0 0.0 1.6 0.00 0.00 0.00 1012.9
20260905234556 -17 0 0.0 1.6 0.00 0.00 0.00 1013.1
20260905233052 -17 0 0.0 0.0 0.00 0.00 0.00 1012.9
20260905231551 -17 0 0.0 1.6 0.00 0.00 0.00 1012.9
20260905230059 -17 0 0.0 3.2 0.00 0.00 0.00 1012.7
20260905224549 -17 0 0.0 1.6 0.00 0.00 0.00 1012.9
20260905223055 -17 0 0.0 0.0 0.00 0.00 0.00 1012.9
20260905221601 -17 0 0.0 0.0 0.00 0.00 0.00 1012.9
20260905220048 -17 0 0.0 1.6 0.00 0.00 0.00 1012.8
20260905214602 -17 0 0.0 1.6 0.00 0.00 0.00 1012.8
20260905213048 -17 0 0.0 1.6 0.00 0.00 0.00 1012.9
20260905211600 -17 0 0.0 1.6 0.00 0.00 0.00 1012.8
20260905210106 -17 0 0.0 0.0 0.00 0.00 0.00 1013.0
20260905204550 -17 0 0.0 1.6 0.00 0.00 0.00 1013.1
20260905203049 -17 0 0.0 0.0 0.00 0.00 0.00 1013.2
20260905201548 -17 0 0.0 1.6 0.00 0.00 0.00 1013.4
20260905200055 -17 0 0.0 3.2 0.00 0.00 0.00 1013.5
20260905194553 -17 0 0.0 1.6 0.00 0.00 0.00 1013.6
20260905193050 -17 0 0.0 1.6 0.00 0.00 0.00 1013.7
20260905191546 -17 0 0.0 3.2 0.00 0.00 0.00 1013.6
20260905190054 -17 0 0.0 3.2 0.00 0.00 0.00 1013.5
20260905184600 -17 208 0.0 6.4 0.00 0.00 0.00 1013.6
20260905183050 -17 213 1.6 6.4 0.00 0.00 0.00 1013.7
20260905181559 -17 0 0.0 4.8 0.00 0.00 0.00 1013.8
20260905180111 -17 0 0.0 4.8 0.00 0.00 0.00 1013.9
20260905174553 -17 232 0.0 4.8 0.00 0.00 0.00 1014.2
20260905173113 -17 0 0.0 3.2 0.00 0.00 0.00 1014.3
20260905171556 -17 0 0.0 6.4 0.00 0.00 0.00 1014.4
20260905170049 -17 213 0.0 4.8 0.00 0.00 0.00 1014.3
20260905164552 -17 225 1.6 6.4 0.00 0.00 0.00 1014.3
20260905163053 -17 0 0.0 3.2 0.00 0.00 0.00 1014.4
20260905161550 -17 0 0.0 6.4 0.00 0.00 0.00 1014.3
20260905160104 -17 0 1.6 4.8 0.00 0.00 0.00 1014.2
20260905154601 -17 0 0.0 6.4 0.00 0.00 0.00 1014.2
20260905153050 -17 0 0.0 4.8 0.00 0.00 0.00 1014.2
20260905151557 -17 0 0.0 3.2 0.00 0.00 0.00 1014.1
20260905150059 -17 0 0.0 6.4 0.00 0.00 0.00 1013.9
20260905144552 -17 103 0.0 8.0 0.00 0.00 0.00 1013.8
20260905143101 -17 0 0.0 0.0 0.00 0.00 0.00 1013.9
20260905141552 -17 0 0.0 0.0 0.00 0.00 0.00 1013.7